EHI
0 0 0 0 0 0 0 0 0 0 0 0 0 0 1 1 1 0 0 0 0 0 0 0 0 0 0 1 2 2 1 0 1 1 1 0 0 0 0 0 0 0 0
0 0 0 0 0 0 0 0 0 0 0 0 0 0 1 2 1 0 0 0 0 0 0 0 0 0 1 1 2 2 1 1 1 2 2 0 0 0 0 0 0 0 0
0 0 0 0 0 0 0 0 0 0 0 0 0 0 1 1 1 0 0 0 0 0 0 0 0 1 2 2 2 2 3 2 2 1 1 0 0 0 0 0 0 0 0
0 0 0 0 0 0 0 0 0 0 0 0 0 0 0 0 0 0 0 0 0 0 1 1 2 2 2 2 1 2 2 2 1 0 0 0 0 0 0 0 0 0 0
0 0 0 0 0 0 0 0 0 0 0 0 0 0 0 0 0 0 0 0 0 0 1 2 2 2 1 1 0 1 1 1 0 0 0 0 0 0 0 0 0 0 0
0 0 0 0 0 0 0 0 0 0 0 0 0 0 0 0 0 0 0 0 0 0 1 1 1 1 0 0 0 0 0 0 0 0 0 0 0 0 0 0 0 0 0
0 0 0 0 0 0 0 0 0 0 0 0 0 1 1 0 0 0 0 0 0 0 0 0 0 0 0 0 0 0 0 0 0 0 0 0 0 0 0 0 0 0 0
0 0 0 0 0 0 0 0 0 0 0 0 0 1 1 1 0 0 0 0 0 0 0 0 0 0 0 0 0 0 0 0 0 0 0 0 0 0 0 0 0 0 0
0 0 0 0 0 0 0 0 0 0 0 0 0 1 1 1 0 0 0 0 0 1 0 0 0 0 0 0 0 0 0 0 0 0 0 0 0 0 0 0 0 0 0
0 0 0 0 0 0 0 0 0 0 0 0 0 0 0 0 0 0 0 0 0 0 0 0 0 0 0 0 0 0 0 0 0 0 0 0 0 0 0 0 0 0 0
0 0 0 0 0 0 0 0 0 0 0 0 0 0 0 0 0 0 0 0 0 0 0 0 0 0 0 0 0 0 0 0 0 0 0 0 0 0 0 0 0 0 0
0 0 0 0 0 0 0 0 0 0 0 0 0 0 0 0 0 0 0 0 0 0 0 0 0 0 0 0 0 0 0 0 0 0 0 0 0 0 0 0 0 0 0
0 0 0 0 0 0 0 0 0 0 0 0 0 0 0 0 0 0 0 0 0 0 0 0 0 0 0 0 0 0 0 0 0 0 0 0 0 0 0 0 0 0 0
0 0 0 0 0 0 0 0 0 0 0 0 0 0 0 0 0 0 0 0 0 0 0 0 0 0 0 0 0 0 0 0 0 0 0 0 0 0 0 0 0 0 0
0 0 0 0 0 0 0 0 0 0 0 0 0 0 0 0 0 0 0 0 0 0 0 0 0 0 0 0 0 0 0 0 0 0 0 0 0 0 0 0 0 0 1
0 0 0 0 0 0 0 0 0 0 0 0 0 0 0 0 0 0 0 0 0 0 0 0 0 0 0 0 0 0 0 0 0 0 0 0 0 0 0 1 1 1 1
0 1 1 0 0 0 0 0 0 0 0 0 0 0 0 0 0 0 0 0 0 0 0 0 0 0 0 0 0 0 0 0 0 0 0 0 0 0 0 1 1 1 1
1 1 1 0 0 0 0 0 0 0 0 0 1 0 0 0 0 0 0 0 0 0 0 0 0 0 0 0 0 0 0 0 0 0 0 0 0 0 0 1 1 0 0
0 0 0 0 0 0 0 0 0 0 0 0 0 0 0 0 0 0 0 0 0 0 0 0 0 0 0 0 0 0 0 0 0 0 0 0 0 0 0 0 0 0 0
0 0 0 0 0 0 0 0 0 0 0 0 0 0 0 0 0 0 0 0 0 0 0 0 0 0 0 0 0 0 0 0 0 0 0 0 0 0 0 0 0 0 0
0 0 0 0 0 0 0 0 0 0 0 0 0 0 0 0 0 0 0 0 0 0 0 0 0 0 0 0 0 0 0 0 0 0 0 0 0 0 0 0 0 0 0
0 0 0 0 0 0 0 0 0 0 0 0 0 0 0 0 0 0 0 0 0 0 0 0 0 0 0 0 0 0 0 0 0 0 0 0 0 0 0 0 0 0 0
0 0 0 0 0 0 0 0 0 0 0 0 0 0 0 0 0 0 0 0 0 0 0 0 0 0 0 0 0 0 0 0 0 0 0 0 0 0 0 0 0 0 0
0 0 0 0 0 0 0 0 0 0 0 0 0 0 0 0 0 0 0 0 0 0 0 0 0 0 0 0 0 0 0 0 0 0 0 0 0 0 0 0 0 0 0
0 0 0 0 0 0 0 0 0 0 0 0 0 0 0 0 0 0 0 0 0 0 0 0 0 0 0 0 0 0 0 0 0 0 0 0 0 0 0 0 0 0 0
0 0 0 0 0 0 0 0 0 0 0 0 0 0 0 0 0 0 0 0 0 0 0 0 0 0 0 0 0 0 0 0 0 0 0 0 0 0 0 0 0 0 0
Wind_Speed
3 5 6 5 5 6 7 8 7 7 7 7 6 6 6 6 6 6 6 6 5 4 4 4 4 5 6 7 8 8 7 8 8 8 8 7 7 7 6 5 3 5 7
4 5 5 5 6 7 7 8 8 7 7 7 7 6 6 6 7 7 7 7 6 5 4 4 5 5 7 8 8 9 8 8 8 8 8 8 8 7 6 6 5 6 6
4 5 6 7 7 7 7 8 8 8 8 8 8 7 7 7 7 7 7 8 7 6 5 4 6 6 7 8 9 9 9 8 8 7 5 5 8 8 7 7 7 7 7
4 5 7 7 6 7 7 7 8 8 8 8 8 8 8 7 7 7 8 8 8 8 8 7 9 8 8 8 9 9 9 8 7 3 3 5 6 9 7 7 6 6 7
5 5 7 6 7 7 7 7 8 8 8 8 8 8 8 8 8 8 8 8 9 9 10 10 10 10 9 9 10 9 9 8 5 2 6 6 6 8 7 7 7 7 6
5 6 8 6 7 7 7 7 7 8 8 9 9 8 8 8 8 8 8 8 9 9 10 10 11 11 10 10 10 9 8 6 3 4 5 5 6 8 7 8 7 7 7
6 6 8 7 7 7 7 8 8 9 9 9 9 10 9 9 8 8 9 9 9 10 10 11 11 11 11 10 10 9 7 4 3 4 4 5 7 8 8 8 8 7 7
6 6 7 8 7 7 7 7 8 8 9 10 10 10 9 9 10 9 9 10 10 10 10 11 11 10 11 10 9 8 6 2 4 5 5 6 8 7 7 7 7 7 7
6 5 5 6 7 8 8 8 9 9 9 10 10 10 10 10 10 10 10 10 10 10 10 10 10 11 11 10 10 9 8 5 3 4 5 6 8 8 8 8 8 8 7
5 5 5 6 6 6 7 9 8 9 9 9 10 9 8 8 9 9 10 11 10 10 10 11 11 11 11 10 10 9 6 2 5 5 4 7 8 8 8 8 8 8 8
4 4 5 5 5 5 6 7 6 7 7 5 7 7 3 5 7 7 11 10 10 10 10 11 10 10 9 9 9 6 2 3 6 5 5 8 8 8 7 7 7 7 7
4 5 4 5 5 5 5 5 4 5 5 5 6 5 4 5 6 6 10 10 10 9 9 10 7 6 3 5 5 2 3 5 4 5 7 9 8 8 7 7 6 6 6
5 5 5 5 5 5 4 4 3 3 3 5 6 5 4 4 4 4 4 5 6 5 5 6 4 4 5 4 3 4 5 4 4 4 7 9 8 7 7 6 6 6 6
5 5 5 4 5 5 4 4 3 3 3 4 4 5 4 3 3 4 3 4 4 3 4 4 3 5 6 6 5 6 6 4 4 4 7 9 8 7 7 6 6 6 6
4 4 5 4 4 5 4 2 3 3 3 4 3 3 4 3 4 4 3 3 4 4 3 3 4 6 6 6 6 6 6 6 6 5 5 9 9 8 8 7 6 6 6
4 5 5 4 4 4 4 3 3 3 3 3 3 4 4 3 3 3 4 4 4 3 3 3 5 5 5 5 6 6 6 6 6 5 5 6 8 8 8 8 8 7 6
4 5 5 4 4 4 4 4 3 2 3 3 3 4 4 4 4 3 4 4 4 4 4 4 5 4 5 5 5 6 6 6 5 5 5 4 4 8 9 9 9 8 7
3 4 5 3 4 4 3 3 2 3 3 3 3 3 4 4 4 4 3 4 4 3 3 4 3 3 4 4 4 4 4 4 5 5 4 4 4 4 7 11 11 10 9
3 3 5 4 4 4 3 3 2 3 3 3 3 3 3 4 4 4 3 3 4 3 3 3 3 3 4 4 4 3 3 4 4 4 5 5 5 4 4 7 9 10 10
3 3 4 5 3 4 2 2 3 2 2 2 2 3 3 3 3 3 2 3 3 3 3 3 3 3 3 3 3 4 3 3 3 4 4 4 4 5 6 6 4 6 9
5 4 4 4 4 3 2 1 1 2 1 2 2 3 3 3 2 3 2 2 2 2 3 3 3 3 3 2 2 3 3 3 4 3 3 3 4 5 5 5 4 4 4
5 5 5 4 4 3 1 1 1 1 1 2 1 2 2 2 2 2 2 2 2 2 2 3 2 1 1 0 1 0 2 3 3 3 3 3 3 3 4 5 5 5 4
6 5 4 5 5 4 3 2 2 2 1 2 2 2 2 2 2 1 2 2 2 2 2 2 1 1 0 0 1 2 1 1 2 2 3 2 3 3 3 4 5 5 5
6 5 5 5 5 4 4 2 2 1 1 1 1 2 2 2 2 1 2 2 2 1 2 1 1 0 1 0 1 1 2 2 1 1 2 2 3 3 3 3 3 4 5
6 5 5 5 5 4 3 3 2 1 1 1 1 2 2 2 1 1 1 1 1 1 1 1 0 1 1 1 1 0 1 0 2 1 1 1 1 2 2 3 2 3 4
6 6 5 5 5 4 3 3 3 2 2 2 1 1 1 1 1 1 1 1 1 1 1 1 1 1 1 1 1 1 0 1 0 0 0 0 1 1 2 2 2 3 3
Wind_Direction
31 32 30 17 44 55 57 61 61 67 67 71 69 77 83 86 86 85 86 85 81 77 81 101 117 119 117 117 114 110 108 111 112 113 111 104 101 100 95 96 115 108 97
31 35 47 36 57 63 64 60 62 68 67 66 69 73 78 81 81 80 81 80 76 71 69 93 114 116 116 116 116 111 105 102 106 107 112 112 102 97 90 79 53 73 86
41 48 70 65 60 64 67 64 61 63 67 66 69 72 72 75 80 80 76 74 72 67 63 84 113 114 113 113 111 109 105 102 101 104 126 115 102 90 85 79 76 79 82
53 57 59 65 67 69 69 68 64 62 64 65 69 72 75 76 76 75 74 69 67 64 67 87 102 104 106 109 110 106 102 98 98 119 109 86 91 86 81 79 79 79 78
66 67 70 62 68 68 71 72 71 66 64 66 72 75 77 76 74 73 70 69 69 69 72 80 88 93 97 102 103 102 100 96 99 106 80 76 78 82 79 77 82 80 76
73 73 77 63 66 69 70 72 72 69 67 68 70 72 75 76 76 77 75 73 71 72 74 79 86 89 91 94 95 98 101 107 127 78 81 84 82 83 78 75 75 76 73
70 69 78 67 65 68 69 71 76 72 67 70 71 68 69 72 75 78 77 77 76 74 76 80 84 88 90 89 89 91 100 106 93 89 87 82 79 80 79 76 73 73 71
71 71 81 88 73 66 69 71 73 71 67 70 71 69 71 73 73 79 78 79 77 77 79 81 82 88 89 90 90 86 78 76 100 88 81 83 82 81 79 77 74 70 69
74 70 69 85 100 97 76 69 72 71 68 70 72 72 71 72 72 72 74 76 77 77 80 84 85 85 86 85 85 82 74 45 65 72 78 76 81 79 80 77 72 68 68
82 72 67 73 73 82 92 82 73 71 70 73 74 73 79 90 87 80 79 76 74 72 75 78 80 82 82 80 80 78 73 58 60 66 67 80 81 79 79 76 70 69 67
85 80 79 77 77 76 79 91 93 90 81 93 97 86 88 86 84 88 71 73 70 69 73 71 72 78 87 90 80 76 72 66 67 61 59 67 73 74 74 75 72 70 66
93 83 76 80 85 84 80 86 76 79 81 67 66 70 66 67 68 70 87 78 74 76 85 76 77 88 80 88 96 106 70 67 66 66 65 61 66 69 71 73 73 70 67
91 85 80 81 85 90 90 76 68 67 72 71 65 72 68 74 87 77 87 100 89 84 80 83 83 63 60 62 61 66 57 56 61 59 60 52 54 62 69 71 72 70 67
92 85 86 88 90 89 86 80 75 70 66 66 63 64 65 68 71 72 72 69 75 74 68 61 59 68 64 66 65 65 64 57 58 59 59 49 49 53 59 67 67 67 63
101 97 89 90 92 93 85 81 81 71 61 77 67 65 71 69 75 83 81 78 76 80 84 79 72 71 64 60 60 59 59 59 60 56 68 58 50 47 52 59 60 63 60
113 102 98 97 100 105 108 98 75 74 82 69 67 67 77 81 80 73 82 77 73 75 76 83 82 75 68 63 59 59 56 59 57 55 54 70 64 53 51 51 50 56 58
116 110 102 97 98 100 93 82 76 76 74 71 74 73 81 77 78 74 69 76 75 86 91 84 82 77 74 72 67 60 57 51 52 52 51 45 67 70 57 49 46 49 56
127 121 116 117 110 100 95 93 82 74 72 73 75 71 73 78 77 74 70 75 80 85 90 93 86 81 80 76 70 64 62 59 51 45 49 51 44 50 63 52 45 43 46
143 141 133 124 119 107 100 104 86 80 72 67 73 68 62 72 80 83 73 73 81 87 90 94 85 81 85 82 82 76 65 60 57 52 52 48 49 46 51 65 55 46 41
157 157 139 126 125 113 117 112 106 91 81 73 73 80 68 64 71 86 93 91 88 93 93 94 95 90 90 94 87 77 68 67 63 54 47 47 44 44 41 42 50 60 47
168 169 145 141 133 126 131 127 112 102 95 89 75 71 84 80 79 83 83 85 88 92 104 108 103 106 101 106 117 105 94 77 65 61 52 46 47 40 41 42 39 35 57
169 169 156 148 142 141 132 116 107 93 77 75 98 98 87 82 76 79 92 103 110 117 122 120 123 109 110 151 322 156 145 131 94 66 64 51 45 44 34 35 43 42 34
173 173 163 155 155 152 143 135 125 115 126 130 119 100 89 92 81 72 90 101 114 131 126 145 161 168 121 94 353 340 340 64 103 103 71 60 48 41 35 30 35 42 45
177 176 169 159 158 149 152 160 149 141 116 93 92 109 114 100 89 71 86 94 108 107 131 156 131 269 282 39 77 5 354 7 305 134 125 86 58 42 35 33 29 39 44
170 172 174 161 156 154 164 162 183 140 119 124 134 124 132 117 111 114 112 117 121 130 133 123 112 276 281 306 348 51 72 13 286 339 94 104 91 53 40 29 30 37 41
165 166 167 166 160 159 177 185 190 161 162 151 161 143 147 138 145 139 159 166 150 144 156 179 203 230 273 308 303 294 285 322 344 353 322 101 71 72 61 37 29 45 44